Regional Weather Roundup
Issued by NWS

Home | Current Version | Previous Version | Graphics & Text | Print | Product List | Glossary On
Versions: 1 2 3 4 5 6 7 8 9 10 11 12 13 14 15 16 17 18 19 20 21 22 23 24 25 26 27 28 29 30 31 32 33 34 35 36 37 38 39 40 41 42 43 44 45 46 47 48 49 50
000
ASUS43 KFSD 110610
RWRSD

WEATHER ROUNDUP FOR SOUTH DAKOTA
NATIONAL WEATHER SERVICE SIOUX FALLS SD
1200 AM CST MON DEC 11 2017

NOTE: "FAIR" INDICATES FEW OR NO CLOUDS BELOW 12,000 FEET WITH NO
SIGNIFICANT WEATHER AND/OR OBSTRUCTIONS TO VISIBILITY.


SDZ001>005-009-010-012>017-110700-
NORTHWEST AND NORTH CENTRAL SOUTH DAKOTA

CITY           SKY/WX    TMP DP  RH WIND       PRES   REMARKS
BUFFALO          N/A     46  17  31 NW32G40   30.04R
FAITH            N/A     42  17  36 W25       30.04R
MOBRIDGE       CLOUDY    37  23  56 W5        29.91F
$$

SDZ012>016-024>037-041>051-057-063-072>074-110700-
SOUTHWEST AND SOUTH CENTRAL SOUTH DAKOTA

CITY           SKY/WX    TMP DP  RH WIND       PRES   REMARKS
RAPID CTY ARPT CLEAR     52  11  19 NW16      30.12R
PIERRE         CLEAR     43  22  43 NW10      29.98S
CUSTER         CLEAR     44   8  23 NW14G26   30.16S
ELLSWORTH AFB  CLEAR     52  12  20 NW31G40   30.09S
PHILIP         CLEAR     47  17  30 NW21G26   30.06R
PINE RIDGE     CLEAR     40  19  43 W9        30.16F
SPEARFISH      FAIR      48  14  25 W20G30    30.19R
WINNER         FAIR      46  18  32 W13       30.01F
$$

SDZ004>011-016>023-039-040-110700-
NORTHEAST SOUTH DAKOTA

CITY           SKY/WX    TMP DP  RH WIND       PRES   REMARKS
ABERDEEN       CLOUDY    38  29  70 W8        29.89F
WATERTOWN      CLOUDY    35  28  75 W8        29.87F WCI  29
BROOKINGS      CLOUDY    34  27  75 NW6       29.91S WCI  29
SISSETON         N/A     42  28  57 W10       29.82F
$$

SDZ017-020-022-023-036>040-048>070-110700-
SOUTHEAST SOUTH DAKOTA

CITY           SKY/WX    TMP DP  RH WIND       PRES   REMARKS
SIOUX FALLS    CLOUDY    36  28  73 SW3       29.91F
HURON          CLOUDY    38  28  67 W12       29.94R
CHAMBERLAIN    CLOUDY    43  22  42 W12       29.98F
MITCHELL       PTCLDY    41  26  55 W14       29.96R
YANKTON        PTCLDY    34  25  69 S6        29.94F WCI  29
$$

ABBREVIATIONS USED IN REMARKS
   TC - TEMPERATURE IN CELSIUS
  WCI - WIND CHILL INDEX
   HX - HEAT INDEX
  VSB - VISIBILITY





USA.gov is the U.S. government's official web portal to all federal, state and local government web resources and services.